OBJECT AL, 61769

Orbit data source: Space-Track

You're viewing an Uncataloged Satellite

Recently launched and/or uncataloged satellites may have evolving metadata. Metadata may include but not limited to: Owner, Maufacturer, Bus, Motor, and Mission.

OBJECT AL, 61769 is a satellite in SSO that was launched on Mon, 04 Nov 2024 UTC via a SOYUZ-2-1B launch vehicle from the Vostochny Cosmodrome (VOSTO). Unknown objects in Earth's orbit typically refer to objects detected orbiting the Earth but have not yet been identified or cataloged. These objects could be anything from previously untracked satellites, spent rocket stages, debris from satellite collisions, or even natural meteoroids temporarily captured by Earth's gravity.

Loading next visibility...
Identifier
61769, 2024-199AL
Orbit
SSO
Country
Flag of TBDTBD
Related business
Flag of IROmid-e-Faza company (SpaceOmid) (IR)
Manufacturer
OMID
Mission
Operational Commercial Imaging
Bus & Motor
KOWSAR, Unknown motor
Mass
30 kg wet, 30 kg dry
Launch date (UTC)
2024-11-04 (2 years ago)
Launch vehicle
SOYUZ-2-1B
Launch site
Vostochny Cosmodrome (VOSTO)
Object type
Unknown
Shape & HBR
Box, 0.2 m
Radar Cross Section
0.100 m², Medium (>0.1 m² and < 1m²)

Expand to show TLE details & history
Last TLE update: 9 hours ago

TLE from 9 hours ago
0 OBJECT AL
1 61769U 24199AL  26127.92353674  .00026424  00000-0  44577-3 0  9999
2 61769  97.3003   3.2698 0006626  79.7063 280.4937 15.51611785128175
Epoch: 2026-05-07T22:09Z
TLE epoch observation values (Epoch: 2026-05-07T22:09:53.574Z)
Latitude
0.00006°
Longitude
165.03386°
Altitude
414.339 km
Speed
7.663 km/s
True Right ascension
00h 13m 04s
True Declination
0° 00' 00"
Sunlit
Object was in daylight at epoch
Visualization orbit readout
Latitude
Unknown
Longitude
Unknown
Altitude
Unknown
Speed
Unknown
Apparent Right ascension
Unknown
Apparent Declination
Unknown
Sunlit
N/A
Visualization observer readout
Local Sidereal Time
15:29:28
Azimuth
Unknown
Elevation
Unknown
Doppler factor
Unknown
Orbital elements
Apogee altitude
413.436 km
Perigee altitude
404.442 km
Semi-major axis
6,787.076 km
Eccentricity
0.00066
Inclination
97.3003°
RAAN
3.2698°
Arg. of periapsis
79.7063°
True anomaly
280.41903°
Mean anomaly
280.4937°
Eccentric anomaly
280.45637°
Mean motion
3.88167 °/min
Orbital period
92.74 mins
BSTAR
0.00044577
Loading maneuver chart data...
Computing Atmospheric mass density...
Loading historical data...
Loading historical data...
Loading historical data...
Loading historical data...
Loading historical data...
Loading historical data...
Loading historical data...

Documentation

Showing up to 5 results
|